Location: Altamira
(10.5079°N, 66.8544°W)
Time: 17:09:46
(UTC+00:00)

Delta 202 - Pass Details

Date: 13 December 2025
Orbit: 781 x 2712 km, 18.5° (Epoch: 13 January)

Event Time Altitude Azimuth Distance (km) Brightness Sun altitude
Rises 23:02:59 0° 278° (W) 3,244 7.9 -13.5°
Reaches altitude 10° 23:05:26 10° 285° (WNW) 2,339 6.8 -14.0°
Maximum altitude 23:10:29 42° 357° (N) 1,217 4.4 -15.2°
Enters shadow 23:14:02 22° 55° (NE) 1,960 5.0 -16.0°
